Location: Castillon
(43.1358°N, 0.8654°E)
Time: 19:09:20
(UTC+00:00)

SL-24 R/B - Pass Details

Date: 24 January 2021
Orbit: 625 x 1075 km, 98.0° (Epoch: 28 February)

Event Time Altitude Azimuth Distance (km) Brightness Sun altitude
Rises 17:30:10 0° 169° (SSE) 2,906 7.6 -6.2°
Reaches altitude 10° 17:32:17 10° 170° (S) 2,021 6.8 -6.5°
Maximum altitude 17:36:39 79° 258° (WSW) 684 4.4 -7.3°
Drops below altitude 10° 17:41:24 10° 345° (NNW) 2,200 6.9 -8.1°
Sets 17:43:48 0° 347° (NNW) 3,188 7.7 -8.5°
